Location: Dos Palmas
(32.4468°N, 116.8732°W)
Time: 23:32:24
(UTC+00:00)

ATLAS 3B R/B - Pass Details

Date: 20 June 2021
Orbit: 1003 x 1191 km, 63.8° (Epoch: 21 July)

Event Time Altitude Azimuth Distance (km) Brightness Sun altitude
Rises 03:48:35 0° 183° (S) 3,713 5.2 -9.9°
Reaches altitude 10° 03:51:23 10° 174° (S) 2,764 4.5 -10.4°
Maximum altitude 03:57:07 34° 111° (ESE) 1,581 3.1 -11.4°
Drops below altitude 10° 04:02:58 10° 48° (NE) 2,817 4.8 -12.3°
Sets 04:05:49 0° 40° (NE) 3,793 5.6 -12.8°
